User: anonymous
Location: Caltech
(34.1382°N, 118.1253°W)
Time: 00:24:24
(UTC-07:00)
Language:

CZ-2C R/B - Orbit

View from above orbital plane
View from above orbital plane
View from above satellite
View from above satellite

Ground track
Ground track

The orbit data is extracted from the following two-line orbital elements,

1 36089U 09061B   14211.74437558  .00000205  00000-0  62951-4 0  3879
2 36089 098.1037 242.9690 0083308 045.9784 086.9612 14.49193494249248
Epoch (UTC): 30 July 2014 17:51:54
Eccentricity: 0.0083308
inclination: 98.1037°
perigee height: 669 km
apogee height: 787 km
right ascension of ascending node: 242.9690°
argument of perigee: 45.9784°
revolutions per day: 14.49193494
mean anomaly at epoch: 86.9612°
orbit number at epoch: 24924

The dashed part of the orbit path shows where the satellite is in the earth's shadow,  

DLR